This is the latest recevied weather packets stored in our database for station/object DG1ABU-11. If no packets are shown the sender has not sent any weather packets the latest 10 day(s).
| Time | Temp. | Humidity | Pressure | Rain* | Wind** | Luminosity | Snow |
|---|---|---|---|---|---|---|---|
| 1777815145 | 26.67° C | 26% | 1012.4 hPa | - | - | - | - |
| 1777814244 | 27.22° C | 26% | 1012.4 hPa | - | - | - | - |
| 1777813344 | 27.22° C | 26% | 1012.5 hPa | - | - | - | - |
| 1777812444 | 27.22° C | 25% | 1012.6 hPa | - | - | - | - |
| 1777811544 | 26.67° C | 26% | 1012.7 hPa | - | - | - | - |
| 1777810644 | 26.11° C | 26% | 1012.7 hPa | - | - | - | - |
| 1777809744 | 25.56° C | 26% | 1012.8 hPa | - | - | - | - |
| 1777808844 | 25.56° C | 25% | 1012.8 hPa | - | - | - | - |
| 1777807944 | 26.11° C | 23% | 1013 hPa | - | - | - | - |
| 1777807044 | 26.67° C | 24% | 1013 hPa | - | - | - | - |
| 1777806144 | 27.22° C | 24% | 1013.2 hPa | - | - | - | - |
| 1777805244 | 27.78° C | 27% | 1013.2 hPa | - | - | - | - |
| 1777804344 | 27.78° C | 29% | 1013.2 hPa | - | - | - | - |
| 1777803444 | 27.22° C | 29% | 1013.2 hPa | - | - | - | - |
| 1777802544 | 27.22° C | 29% | 1013.2 hPa | - | - | - | - |
| 1777801644 | 27.22° C | 30% | 1013.3 hPa | - | - | - | - |
| 1777800743 | 27.22° C | 30% | 1013.5 hPa | - | - | - | - |
| 1777799843 | 27.78° C | 30% | 1013.5 hPa | - | - | - | - |
| 1777798943 | 26.67° C | 31% | 1013.4 hPa | - | - | - | - |
| 1777798043 | 26.11° C | 33% | 1013.5 hPa | - | - | - | - |
| 1777797143 | 25° C | 35% | 1013.4 hPa | - | - | - | - |
| 1777796243 | 23.33° C | 35% | 1013.4 hPa | - | - | - | - |
| 1777795343 | 22.22° C | 36% | 1013.4 hPa | - | - | - | - |
| 1777794443 | 21.11° C | 37% | 1013.5 hPa | - | - | - | - |
| 1777793543 | 20° C | 39% | 1013.4 hPa | - | - | - | - |
* Rain since midnight (hover to see other rain measurements)
** Current wind speed in m/s (hover to see current wind gust speed)